Погода в Русских Шоях

Россия / Республика Марий Эл     56°40′08″N   49°08′16″E
темп.,
°C
ветер,
м/с
пор.,
м/с
влажн.,
%
обл.,
%
осадки,
мм/ч
давл.,
гПа
погр.,
м
19 мая, ср
ср1900:00+15в4117027 0.0 1018201
03:00+14вюв412775 0.0 1018257
06:00+16вюв411735 0.0 1019333
09:00+21вюв68535 0.0 1019853
12:00+24вюв67415 0.0 10191397
15:00+24юв67415 0.0 10181496
18:00+22юв58562 0.0 1017330
21:00+17вюв411726 0.0 1018211
20 мая, чт
чт2000:00+15юв412725 0.0 1018232
03:00+13вюв310785 0.0 1017183
06:00+17юв411715 0.0 1017334
09:00+22юв59512 0.0 10161452
12:00+24юв710395 0.0 10142129
15:00+24юв71047100 0.0 10132593
18:00+21вюв612558 0.0 1012665
21:00+17ююв5108497 0.3 1011422
21 мая, пт
пт2100:00+13ю6129399 0.0 1012481
03:00+13ю4109844 0.0 1012315
06:00+15ю5985100 0.0 1012413
09:00+19ю686438 0.1 10121098
12:00+20ююз796156 1.8 10121557
15:00+19юз686432 3.1 10121426
18:00+17ююз59730 1.0 1013957
21:00+14юз5118321 1.0 1014415
22 мая, сб
сб2200:00+12зюз410955 0.0 1016417
03:00+10зюз389741 0.0 1017252
06:00+13зюз3683100 0.0 1019330
09:00+16зюз4563100 0.0 10201043
12:00+16юз4565100 0.1 1021804
15:00+16зюз3463100 0.1 10211066
18:00+16юз3573100 0.0 1021334
21:00+12зюз3595100 0.0 1021100
23 мая, вс
вс2300:00+10юз11935 0.0 102211
03:00+9ююв229594 0.0 102212
06:00+12юв2487100 0.0 1022190
09:00+16юв4669100 0.0 1021706
12:00+17ююв4576100 0.1 1021613
15:00+21ю5766100 0.1 1018985
18:00+18ю3684100 0.1 1018247
21:00+16юв41094100 0.1 1017205